User: anonymous   Login
Location: Unspecified
(0.0000°N, 0.0000°E)
Time: 12:13:20
(UTC+00:00)
Language:

USA 116 - Orbit

View from above orbital plane
View from above orbital plane
View from above satellite
View from above satellite

Ground track
Ground track

The orbit data is extracted from the following two-line orbital elements,

1 23728U 95066A   08323.69802823 0.00000600  00000-0  31670-4 0    02
2 23728  97.9290 101.5081 0307000 194.3756 165.6243 14.83044340    09
Epoch (UTC): 18 November 2008 16:45:09
Eccentricity: 0.0307000
inclination: 97.9290°
perigee height: 405 km
apogee height: 834 km
right ascension of ascending node: 101.5081°
argument of perigee: 194.3756°
revolutions per day: 14.83044340
mean anomaly at epoch: 165.6243°
orbit number at epoch: 0

The dashed part of the orbit path shows where the satellite is in the earth's shadow,  

DLR